TimePDT,TemperatureF,Dew PointF,Humidity,Sea Level PressureIn,VisibilityMPH,Wind Direction,Wind SpeedMPH,Gust SpeedMPH,PrecipitationIn,Events,Conditions,WindDirDegrees,DateUTC
12:52 AM,44.1,33.1,65,29.97,10.0,North,4.6,-,N/A,,Clear,10,2012-10-10 07:52:00
1:52 AM,42.1,32.0,67,29.97,10.0,North,4.6,-,N/A,,Clear,10,2012-10-10 08:52:00
2:52 AM,42.1,32.0,67,29.96,10.0,North,5.8,-,N/A,,Clear,360,2012-10-10 09:52:00
3:52 AM,42.1,32.0,67,29.96,10.0,NNE,3.5,-,N/A,,Clear,20,2012-10-10 10:52:00
4:52 AM,39.9,30.0,68,29.95,10.0,North,3.5,-,N/A,,Clear,10,2012-10-10 11:52:00
5:52 AM,37.9,30.0,73,29.95,10.0,North,6.9,-,N/A,,Clear,360,2012-10-10 12:52:00
6:52 AM,37.0,28.9,73,29.95,10.0,Calm,Calm,-,N/A,,Clear,0,2012-10-10 13:52:00
7:52 AM,39.0,30.0,70,29.96,10.0,North,4.6,-,N/A,,Clear,360,2012-10-10 14:52:00
8:52 AM,48.0,34.0,58,29.96,10.0,Calm,Calm,-,N/A,,Clear,0,2012-10-10 15:52:00
9:52 AM,54.0,34.0,47,29.96,10.0,Calm,Calm,-,N/A,,Clear,0,2012-10-10 16:52:00
10:52 AM,59.0,35.1,41,29.95,10.0,Calm,Calm,-,N/A,,Clear,0,2012-10-10 17:52:00
11:52 AM,62.1,37.0,39,29.94,10.0,SSE,5.8,-,N/A,,Clear,150,2012-10-10 18:52:00
12:52 PM,64.9,37.9,37,29.91,10.0,SW,5.8,-,N/A,,Clear,220,2012-10-10 19:52:00
1:52 PM,66.9,37.0,33,29.89,10.0,WSW,4.6,-,N/A,,Clear,240,2012-10-10 20:52:00
2:52 PM,70.0,37.0,30,29.86,10.0,Calm,Calm,-,N/A,,Clear,0,2012-10-10 21:52:00
3:52 PM,70.0,36.0,29,29.85,10.0,Calm,Calm,-,N/A,,Clear,0,2012-10-10 22:52:00
4:52 PM,71.1,36.0,28,29.84,10.0,East,3.5,-,N/A,,Clear,100,2012-10-10 23:52:00
5:52 PM,68.0,36.0,31,29.85,10.0,Calm,Calm,-,N/A,,Clear,0,2012-10-11 00:52:00
6:52 PM,63.0,37.0,38,29.85,10.0,Calm,Calm,-,N/A,,Clear,0,2012-10-11 01:52:00
7:52 PM,62.1,37.9,41,29.86,10.0,Calm,Calm,-,N/A,,Clear,0,2012-10-11 02:52:00
8:52 PM,52.0,33.1,49,29.87,10.0,North,4.6,-,N/A,,Clear,10,2012-10-11 03:52:00
9:52 PM,48.9,37.0,64,29.88,10.0,North,3.5,-,N/A,,Clear,10,2012-10-11 04:52:00
10:52 PM,44.1,33.1,65,29.89,10.0,North,5.8,-,N/A,,Clear,360,2012-10-11 05:52:00
11:52 PM,46.0,33.1,61,29.89,10.0,North,4.6,-,N/A,,Clear,360,2012-10-11 06:52:00